STARLINK-31902, 59666

Orbit data source: Space-Track

STARLINK-31902, 59666 is a payload satellite owned by SpaceX/Seattle (US) in LEO that was launched on Mon, 06 May 2024 UTC via an FALCON 9 launch vehicle from the Air Force Eastern Test Range (AFETR). Payload-class satellites include a variety of spacecraft equipped with specific instruments for various scientific and technological missions. These include communications satellites like Starlink; space stations such as the ISS; scientific satellites like the Hubble; Earth observation satellites from companies like Planet Labs, Umbra, and HawkEye 360; GPS; miniature CubeSats for education and research; and military/defense satellites.

Loading next visibility...
Identifier
59666, 2024-084N
Orbit
LEO
Last TLE update
16 hours ago
Origin
Manufacturer
SpaceX/Seattle
Mission
Operational spacecraft
Bus & Motor
STARLINK V2M, Unknown motor
Mass
730 kg wet, ~700 kg dry
Launch date (UTC)
2024-05-06 (1 year ago)
Launch vehicle
FALCON 9
Launch site
Air Force Eastern Test Range (AFETR)
Object type
Payload
Rocket body
Debris
Shape & HBR
Unknown
Radar Cross Section
Large (>1 m²)

Expand to show TLE details & history

TLE from 16 hours ago
0 STARLINK-31902
1 59666U 24084N   25186.48603824 -.00000170  00000-0  33288-5 0  9995
2 59666  43.0016 358.1226 0001271 267.0805  92.9902 15.27578236 66564
Epoch: 2025-07-05T11:39Z
TLE epoch observation values (Epoch: 2025-07-05T11:39:53.703Z)
Latitude
0.00001°
Longitude
-100.57454°
Altitude
482.876 km
Speed
7.626 km/s
True Right ascension
23h 52m 29s
True Declination
0° 00' 00"
Sunlit
Object was in daylight at epoch
Visualization orbit readout
Latitude
37.79296°
Longitude
-48.5459°
Altitude
485.834 km
Speed
7.627 km/s
Apparent Right ascension
03h 27m 29s
Apparent Declination
0° 38' 01"
Sunlit
Object is in daylight
Visualization observer readout
Local Sidereal Time
15:35:06
Azimuth
2.932° NNE
Elevation
-49.413°
Doppler factor
1
Orbital elements
Apogee altitude
485.872 km
Perigee altitude
484.127 km
Semi-major axis
6,863.136 km
Eccentricity
0.00013
Inclination
43.0016°
RAAN
358.1226°
Arg. of periapsis
267.0805°
True anomaly
Unknown
Mean anomaly
92.9902°
Eccentric anomaly
Unknown
Mean motion
3.81733 °/min
Orbital period
94.31 mins
BSTAR
0.0000033288
Loading maneuver chart data...
Loading SW <> Apogee altitude chart data...
Loading historical data...
Loading historical data...
Loading historical data...
Loading historical data...
Loading historical data...
Loading historical data...
Loading historical data...

STARLINK-31902 Visibility forecast

Observer location: undefined°, undefined°

Span
Click to sort rows by Start time (UTC) header in descending order
Start Az.
Max El. time (UTC)
Max El. Az.
Max El.
End time (UTC)
End Az.
6 mins2025-07-06 14:33:04.127Z214.092° SW2025-07-06 14:36:04.127Z139.342° SSE31.028°2025-07-06 14:39:04.127Z83.373° E
6 mins2025-07-06 16:12:04.127Z266.931° W2025-07-06 16:15:04.127Z29.749° NE40.918°2025-07-06 16:18:04.127Z70.199° E
5 mins2025-07-06 17:52:04.127Z299.009° NW2025-07-06 17:54:04.127Z20.357° NNE38.492°2025-07-06 17:57:04.127Z82.01° E
5 mins2025-07-06 19:31:04.127Z279.343° WNW2025-07-06 19:33:04.127Z181.744° SSW42.723°2025-07-06 19:36:04.127Z120.695° SE
|